Weather reports worldwide

Advertisment
Woensdrecht, Netherlands (6340): temperature & dewpoint: 24.09.2020 23:00:00 - 30.09.2020 23:00:00 (CEST)Woensdrecht, Netherlands (6340): temperature 5cm: 24.09.2020 23:00:00 - 30.09.2020 23:00:00 (CEST)Woensdrecht, Netherlands (6340): wind speed & gusts: 24.09.2020 23:00:00 - 30.09.2020 23:00:00 (CEST)Woensdrecht, Netherlands (6340): wind direction: 24.09.2020 23:00:00 - 30.09.2020 23:00:00 (CEST)Woensdrecht, Netherlands (6340): reduced air pressure: 24.09.2020 23:00:00 - 30.09.2020 23:00:00 (CEST)Woensdrecht, Netherlands (6340): visibility: 24.09.2020 23:00:00 - 30.09.2020 23:00:00 (CEST)Woensdrecht, Netherlands (6340): precipitation: 24.09.2020 23:00:00 - 30.09.2020 23:00:00 (CEST)
Date & Time tt [°C] td [°C] tt 5cm [°C] ff [km/h] ff [kn] fx [km/h] fx [kn] dd ppp [hPa] vv [km] rr [mm]
30.09.2020 23:00:00 15,7 13,5 15,0 5 3 14 8 SE 1008,0 10 0,0
30.09.2020 22:00:00 16,4 13,7 15,6 8 4 18 10 SSE 1008,5 10 0,0
30.09.2020 21:00:00 16,6 13,8 15,9 8 4 14 8 SSE 1008,9 10 0,0
30.09.2020 20:00:00 17,2 13,5 16,4 8 4 18 10 S 1009,3 10 0,0
30.09.2020 19:00:00 17,6 14,3 17,1 5 3 18 10 SSE 1009,7 10 0,0
30.09.2020 18:00:00 18,2 14,1 18,0 11 6 22 12 S 1010,1 10 0,0
30.09.2020 17:00:00 18,9 13,9 19,6 9 5 22 12 S 1010,6 10 0,0
30.09.2020 16:00:00 18,9 14,0 19,3 15 8 25 14 SSW 1011,1 10 0,0
30.09.2020 15:00:00 18,3 14,1 18,2 11 6 25 14 SSW 1011,5 10 0,0
30.09.2020 14:00:00 18,5 14,6 19,4 11 6 25 14 S 1012,0 10 0,0
30.09.2020 13:00:00 16,8 15,2 16,8 8 4 18 10 S 1012,7 10 0,0
30.09.2020 12:00:00 16,2 15,3 16,7 5 3 11 6 S 1013,2 8 0,0
30.09.2020 11:00:00 15,0 14,8 15,2 4 2 11 6 - 1013,7 5 1,6
30.09.2020 10:00:00 14,8 14,2 14,6 8 4 11 6 S 1014,2 9 0,0
30.09.2020 09:00:00 14,4 14,0 14,1 8 4 14 8 S 1014,2 8 0,0
30.09.2020 08:00:00 13,6 13,0 13,2 8 4 11 6 SSE 1014,3 10 0,0
30.09.2020 07:00:00 13,2 12,8 12,6 5 3 7 4 SSE 1014,4 10 0,0
30.09.2020 06:00:00 12,9 12,7 12,2 2 1 7 4 SSE 1014,7 10 0,0
30.09.2020 05:00:00 12,7 12,5 11,4 5 3 14 8 S 1015,0 10 0,0
30.09.2020 04:00:00 14,7 13,4 14,1 8 4 14 8 SW 1015,5 10 0,0
30.09.2020 03:00:00 13,9 13,1 12,9 5 3 11 6 SSW 1015,8 10 0,0
30.09.2020 02:00:00 13,5 12,9 12,5 8 4 14 8 SSW 1015,9 10 0,0
30.09.2020 01:00:00 14,5 13,2 13,7 13 7 18 10 SW 1016,2 10 0,0
30.09.2020 00:00:00 14,9 13,8 14,2 8 4 18 10 SW 1016,2 10 0,0
29.09.2020 23:00:00 15,2 13,6 14,3 11 6 18 10 SW 1016,5 10 0,0
29.09.2020 22:00:00 16,4 14,9 15,7 13 7 22 12 SW 1016,4 10 0,0
29.09.2020 21:00:00 16,5 15,7 15,9 8 4 14 8 S 1016,2 10 0,0
29.09.2020 20:00:00 16,7 15,4 16,3 5 3 11 6 S 1016,1 10 0,0
29.09.2020 19:00:00 17,3 14,7 17,1 5 3 14 8 S 1015,9 10 0,0
29.09.2020 18:00:00 17,7 13,9 17,7 8 4 18 10 SW 1015,9 10 0,0
29.09.2020 17:00:00 18,3 13,6 18,6 11 6 18 10 WSW 1015,8 10 0,0
29.09.2020 16:00:00 18,3 13,2 19,1 13 7 18 10 WSW 1015,9 10 0,0
29.09.2020 15:00:00 18,5 11,4 18,9 13 7 18 10 W 1016,1 10 0,0
29.09.2020 14:00:00 18,2 9,8 19,7 13 7 22 12 WSW 1016,3 10 0,0
29.09.2020 13:00:00 18,1 11,8 19,5 15 8 22 12 W 1016,3 10 0,0
29.09.2020 12:00:00 16,9 11,0 17,9 13 7 22 12 WSW 1016,3 10 0,0
29.09.2020 11:00:00 15,4 10,6 16,3 11 6 18 10 WSW 1016,0 10 0,0
29.09.2020 10:00:00 14,1 11,6 14,2 8 4 14 8 SW 1015,7 10 0,0
29.09.2020 09:00:00 10,6 10,5 9,2 4 2 4 2 SSW 1015,2 9 0,0
29.09.2020 08:00:00 10,5 10,3 8,7 2 1 7 4 W 1014,6 10 0,0
29.09.2020 07:00:00 11,6 11,1 10,8 5 3 7 4 WSW 1014,2 10 0,0
29.09.2020 06:00:00 12,8 12,4 12,6 8 4 11 6 W 1014,0 10 0,1
29.09.2020 05:00:00 13,4 12,9 13,2 9 5 11 6 W 1013,7 10 0,0
29.09.2020 04:00:00 13,4 12,6 13,2 9 5 22 12 WNW 1013,6 10 0,0
29.09.2020 03:00:00 13,6 13,0 13,3 13 7 25 14 WNW 1013,3 10 0,0
29.09.2020 02:00:00 13,6 13,3 13,5 15 8 32 18 WNW 1013,0 3,3 0,2
29.09.2020 01:00:00 14,2 14,1 14,1 13 7 25 14 WNW 1012,8 2,5 0,3
29.09.2020 00:00:00 14,3 14,2 14,3 13 7 32 18 WNW 1012,6 2,6 0,1
28.09.2020 23:00:00 14,5 14,4 14,4 18 10 32 18 WNW 1012,3 2,8 0,6
28.09.2020 22:00:00 15,1 14,9 15,0 15 8 25 14 WNW 1011,6 2,8 0,8
28.09.2020 21:00:00 15,4 15,3 15,3 16 9 25 14 WNW 1011,2 2,8 0,6
28.09.2020 20:00:00 15,5 15,3 15,3 15 8 29 16 NW 1010,6 10 0,1
28.09.2020 19:00:00 15,5 15,3 15,4 18 10 32 18 NW 1009,9 4,6 0,6
28.09.2020 18:00:00 15,9 15,8 15,9 15 8 25 14 NW 1009,1 2,6 0,9
28.09.2020 17:00:00 16,3 16,1 16,2 15 8 29 16 NW 1008,7 2,7 0,2
28.09.2020 16:00:00 15,1 15,1 15,1 4 2 7 4 - 1008,5 2,9 0,4
28.09.2020 15:00:00 14,7 14,5 14,9 2 1 4 2 SSE 1008,4 3,9 0,2
28.09.2020 14:00:00 14,4 14,2 14,6 2 1 4 2 S 1008,5 2,8 0,1
28.09.2020 13:00:00 14,0 13,9 14,4 4 2 7 4 - 1008,3 6 0,2
28.09.2020 12:00:00 13,6 13,6 13,8 5 3 14 8 S 1007,9 3,4 0,3
28.09.2020 11:00:00 13,3 13,2 13,3 9 5 18 10 S 1007,6 5 1,3
28.09.2020 10:00:00 13,0 12,8 13,0 13 7 22 12 S 1007,5 5 2,9
28.09.2020 09:00:00 13,1 13,0 13,0 8 4 18 10 SSW 1007,5 3,0 1,6
28.09.2020 08:00:00 13,0 12,8 12,9 13 7 22 12 SW 1007,2 1,7 0,8
28.09.2020 07:00:00 12,9 12,7 12,8 11 6 22 12 SW 1007,3 2,4 0,5
28.09.2020 06:00:00 13,0 12,9 13,0 11 6 14 8 SW 1007,5 2,7 1,4
28.09.2020 05:00:00 12,8 12,6 12,7 4 2 7 4 SSW 1007,8 2,5 0,1
28.09.2020 04:00:00 12,5 12,0 12,4 2 1 4 2 S 1008,0 7 0,0
28.09.2020 03:00:00 12,4 12,4 12,3 2 1 4 2 WSW 1008,1 7 0,0
28.09.2020 02:00:00 12,2 12,2 12,2 2 1 7 4 - 1008,4 5 0,0
28.09.2020 01:00:00 12,1 11,7 12,2 2 1 7 4 - 1008,4 10 0,0
28.09.2020 00:00:00 12,3 12,3 12,3 0 0 4 2 N 1008,4 10 0,0
27.09.2020 23:00:00 12,6 12,5 12,5 0 0 7 4 N 1008,0 10 0,1
27.09.2020 22:00:00 12,8 12,0 12,7 2 1 4 2 SSE 1007,8 10 0,2
27.09.2020 21:00:00 12,9 12,0 12,8 2 1 4 2 SSE 1007,2 10 0,0
27.09.2020 20:00:00 13,2 11,9 13,0 2 1 4 2 SE 1006,8 10 0,0
27.09.2020 19:00:00 13,6 11,4 13,5 4 2 7 4 ESE 1006,7 10 0,0
27.09.2020 18:00:00 14,2 10,8 14,3 9 5 14 8 E 1006,2 10 0,0
27.09.2020 17:00:00 14,5 10,8 14,5 13 7 22 12 E 1005,7 10 0,0
27.09.2020 16:00:00 15,1 10,9 15,6 16 9 25 14 NE 1005,0 10 0,0
27.09.2020 15:00:00 15,0 11,3 15,8 16 9 29 16 NE 1004,4 10 0,0
27.09.2020 14:00:00 14,5 11,1 14,7 21 11 32 18 NE 1004,0 10 0,0
27.09.2020 13:00:00 14,7 11,4 14,9 24 13 32 18 ENE 1003,1 10 0,0
27.09.2020 12:00:00 14,6 12,4 14,6 18 10 32 18 NE 1002,3 10 0,0
27.09.2020 11:00:00 15,2 12,4 15,5 22 12 36 19 NE 1001,3 10 0,0
27.09.2020 10:00:00 15,5 12,8 15,5 22 12 54 29 NE 1000,1 10 0,5
27.09.2020 09:00:00 16,4 14,9 16,1 21 11 40 21 N 998,5 10 0,0
27.09.2020 08:00:00 15,9 14,8 15,5 21 11 47 25 N 997,6 10 0,0
27.09.2020 07:00:00 15,6 14,7 15,2 24 13 43 23 N 997,0 10 0,3
27.09.2020 06:00:00 15,0 14,5 14,7 24 13 47 25 N 996,7 10 0,8
27.09.2020 05:00:00 14,2 13,7 13,8 26 14 58 31 NNW 996,8 4,6 3,0
27.09.2020 04:00:00 13,5 13,0 13,2 28 15 50 27 NNW 997,2 4,0 2,6
27.09.2020 03:00:00 12,9 12,3 12,7 21 11 40 21 NW 998,5 6 1,0
27.09.2020 02:00:00 12,7 12,1 12,4 13 7 29 16 NNW 999,9 10 3,7
27.09.2020 01:00:00 12,6 12,2 12,5 13 7 29 16 N 1000,7 9 4,5
27.09.2020 00:00:00 12,6 12,1 12,4 15 8 29 16 NNW 1001,0 10 0,4
26.09.2020 23:00:00 12,5 12,0 12,3 9 5 36 19 N 1001,7 10 1,8
26.09.2020 22:00:00 12,6 11,4 12,6 18 10 40 21 NNW 1002,2 10 1,0
26.09.2020 21:00:00 13,9 10,2 13,1 8 4 14 8 NW 1001,8 10 0,0
26.09.2020 20:00:00 14,1 10,2 13,4 8 4 14 8 NW 1001,7 10 0,0
26.09.2020 19:00:00 14,0 11,2 13,7 5 3 7 4 W 1001,6 10 0,0
26.09.2020 18:00:00 13,9 11,2 14,3 2 1 14 8 SSW 1001,6 10 0,0
26.09.2020 17:00:00 13,4 10,6 13,4 15 8 29 16 NNE 1001,6 10 0,2
26.09.2020 16:00:00 16,2 10,7 18,1 15 8 25 14 W 1000,9 10 0,0
26.09.2020 15:00:00 14,0 10,5 15,1 16 9 25 14 W 1001,0 10 0,0
26.09.2020 14:00:00 14,7 9,7 15,6 15 8 22 12 - 1000,5 10 0,0
26.09.2020 13:00:00 14,9 10,2 15,8 15 8 29 16 NW 1000,4 10 0,0
26.09.2020 12:00:00 13,4 10,5 14,2 18 10 25 14 WNW 1000,3 10 0,0
26.09.2020 11:00:00 12,7 10,1 12,4 9 5 14 8 W 1000,2 10 0,0
26.09.2020 10:00:00 10,4 9,4 10,1 5 3 29 16 NW 999,6 10 2,8
26.09.2020 09:00:00 10,8 8,9 10,8 11 6 25 14 NNW 999,1 10 0,4
26.09.2020 08:00:00 10,9 9,5 10,5 15 8 29 16 NW 998,8 10 0,1
26.09.2020 07:00:00 11,1 9,8 10,6 15 8 25 14 WNW 998,1 10 0,0
26.09.2020 06:00:00 10,9 10,0 10,5 9 5 14 8 NW 997,3 10 0,2
26.09.2020 05:00:00 10,8 10,2 10,3 11 6 22 12 WNW 996,6 10 1,0
26.09.2020 04:00:00 10,9 10,3 10,7 11 6 25 14 NNW 995,8 6 3,7
26.09.2020 03:00:00 11,3 10,5 10,9 13 7 25 14 NW 994,9 10 2,2
26.09.2020 02:00:00 11,7 11,1 11,5 13 7 54 29 NNW 993,7 10 6,7
26.09.2020 01:00:00 12,4 11,3 12,1 34 18 65 35 WNW 992,6 10 2,5
26.09.2020 00:00:00 11,7 11,0 11,3 42 23 76 41 W 992,9 4,5 0,5
25.09.2020 23:00:00 11,5 10,3 11,0 44 24 76 41 WNW 994,2 3,5 0,7
25.09.2020 22:00:00 11,9 9,9 11,3 41 22 65 35 WNW 994,1 9 2,3
25.09.2020 21:00:00 11,0 9,9 10,6 18 10 61 33 WNW 994,3 8 11,3
25.09.2020 20:00:00 10,7 9,9 10,6 41 22 61 33 W 993,9 7 0,7
25.09.2020 19:00:00 10,4 9,1 10,1 39 21 61 33 W 994,3 6 0,5
25.09.2020 18:00:00 11,3 9,0 11,1 37 20 54 29 W 994,7 10 0,0
25.09.2020 17:00:00 10,8 9,5 10,5 37 20 61 33 WSW 994,9 6 0,6
25.09.2020 16:00:00 11,2 8,9 11,2 35 19 54 29 W 995,1 10 0,6
25.09.2020 15:00:00 11,2 9,4 11,2 22 12 43 23 WSW 995,2 10 1,3
25.09.2020 14:00:00 11,1 9,5 11,4 21 11 32 18 WSW 995,2 10 0,5
25.09.2020 13:00:00 10,8 9,4 10,5 26 14 36 19 WSW 995,3 4,4 1,6
25.09.2020 12:00:00 12,0 7,9 11,9 16 9 36 19 SW 995,3 10 0,0
25.09.2020 11:00:00 11,0 7,6 11,3 21 11 36 19 SW 995,3 10 0,0
25.09.2020 10:00:00 10,6 7,1 10,8 16 9 32 18 SSW 994,7 10 0,0
25.09.2020 09:00:00 9,9 7,0 9,7 16 9 36 19 SSW 994,7 10 0,0
25.09.2020 08:00:00 9,7 6,6 8,9 16 9 36 19 SSW 994,8 10 0,0
25.09.2020 07:00:00 9,1 6,2 8,2 16 9 40 21 SSW 994,8 10 0,0
25.09.2020 06:00:00 9,2 6,4 8,5 21 11 36 19 SSW 994,7 10 0,0
25.09.2020 05:00:00 9,6 7,3 8,9 16 9 40 21 SW 994,3 10 0,0
25.09.2020 04:00:00 9,7 7,9 8,9 13 7 29 16 SSW 994,8 10 0,1
25.09.2020 03:00:00 10,5 8,7 10,3 16 9 32 18 SW 995,1 10 0,5
25.09.2020 02:00:00 11,8 8,7 11,2 16 9 32 18 SW 995,0 10 0,0
25.09.2020 01:00:00 12,3 9,7 11,7 18 10 36 19 SSW 994,8 10 0,0
25.09.2020 00:00:00 12,6 10,4 11,6 13 7 29 16 S 995,2 10 0,0
24.09.2020 23:00:00 11,6 10,2 11,2 9 5 22 12 SSE 995,5 10 0,0

tt = temperature
td = dewpoint
tt 5cm = temperature 5cm
ff = wind speed
fx = gusts
dd = wind direction
ppp = reduced air pressure
vv = visibility
rr = precipitation

Next stations